Orbital Elements at Epoch 2459200.5 (2020-Dec-17.0) TDB
Reference: JPL 18 (heliocentric ecliptic J2000)
Element | Value | Uncertainty (1-sigma) | Units |
e | .09213065004505322 | 4.9409e-08 | |
a | 2.770930131571772 | 2.5587e-08 | au |
q | 2.51564253732064 | 1.4089e-07 | au |
i | 13.10442218099043 | 7.1337e-06 | deg |
node | 19.00395358711341 | 2.0419e-05 | deg |
peri | 227.5912353287197 | 4.2799e-05 | deg |
M | 286.2276276477102 | 4.1372e-05 | deg |
tp | 2459545.745509554838 (2021-Nov-27.24550955) | 0.00019596 | TDB |
period | 1684.755139040662 4.61 | 2.3336e-05 6.389e-08 | d yr |
n | .2136809033299595 | 2.9598e-09 | deg/d |
Q | 3.026217725822903 | 2.7945e-08 | au |
|
| | Orbit Determination Parameters
Additional Information
|